Weather History for BGGH - January, 2013

Change the Weather History Date:

Wednesday, January 2, 2013

  Actual Average Record
Temperature  
Mean Temperature 20 °F -  
Max Temperature 24 °F 20 °F 42 °F (1997)
Min Temperature 17 °F 14 °F 3 °F (2012)
Degree Days  
Heating Degree Days 44    
Moisture  
Dew Point 12 °F    
Average Humidity 69    
Maximum Humidity 80    
Minimum Humidity 51    
Precipitation  
Precipitation 0.01 in - - ()
Sea Level Pressure  
Sea Level Pressure 29.15 in    
Wind  
Wind Speed 11 mph ()    
Max Wind Speed 16 mph    
Max Gust Speed -    
Visibility 6.2 miles    
Events      
Averages and records for this station are not official NWS values.
T = Trace of Precipitation, MM = Missing Value Source: Averaged Metar Reports

Daily Weather History Graph

Daily Weather History Graph

Search for Another Location

Airport or City:

Trip Planner

Search our weather history database for the weather conditions in past years. The results will help you decide how hot, cold, wet, or windy it might be!

Date:

Astronomy

Jan. 02, 2013 Rise Set
Actual Time 10:17 AM WGT 2:44 PM WGT
Civil Twilight 9:01 AM WGT 4:00 PM WGT
Nautical Twilight 7:53 AM WGT 5:08 PM WGT
Astronomical Twilight 6:54 AM WGT 6:07 PM WGT
Moon 10:36 PM WGT (1/2) 10:41 AM WGT (1/2)
Length of Visible Light 6h 58m
Length of Day
4h 26m
Waning Gibbous, 76% of the Moon is Illuminated
Jan 2
Waning Gibbous
Jan 5
Last Quarter
Jan 11
New
Jan 18
First Quarter
Jan 27
Full

Hourly Weather History & Observations

Time (WGT) Temp. Windchill Dew Point Humidity Pressure Visibility Wind Dir Wind Speed Gust Speed Precip Events Conditions
12:00 AM 21 °F - 11 °F 51% 29.08 in 31 mi NE 16.1 mph - -  
12:20 AM 17.6 °F 5.7 °F 5.0 °F 58% 29.09 in 6.2 mi NE 10.4 mph - N/A   Unknown
12:50 AM 19.4 °F 5.0 °F 8.6 °F 63% 29.09 in 6.2 mi ENE 16.1 mph - N/A   Unknown
1:20 AM 19.4 °F 7.2 °F 6.8 °F 58% 29.09 in 6.2 mi ENE 11.5 mph - N/A   Unknown
1:50 AM 19.4 °F 6.0 °F 8.6 °F 63% 29.09 in 6.2 mi NE 13.8 mph - N/A   Unknown
2:20 AM 19.4 °F 7.2 °F 8.6 °F 63% 29.09 in 6.2 mi ENE 11.5 mph - N/A   Unknown
2:50 AM 19.4 °F 8.6 °F 6.8 °F 58% 29.09 in 6.2 mi ENE 9.2 mph - N/A   Unknown
3:00 AM 20 °F - 15 °F 73% 29.08 in 31 mi North 12.7 mph - -   Mostly Cloudy
3:20 AM 19.4 °F 6.0 °F 8.6 °F 63% 29.09 in 6.2 mi ENE 13.8 mph - N/A   Unknown
3:50 AM 19.4 °F 6.6 °F 6.8 °F 58% 29.09 in 6.2 mi ENE 12.7 mph - N/A   Unknown
4:20 AM 19.4 °F 6.0 °F 8.6 °F 63% 29.09 in 6.2 mi NE 13.8 mph - N/A   Unknown
4:50 AM 19.4 °F 7.2 °F 8.6 °F 63% 29.09 in 6.2 mi ENE 11.5 mph - N/A   Unknown
5:20 AM 19.4 °F 5.5 °F 10.4 °F 68% 29.09 in 6.2 mi NE 15.0 mph - N/A   Unknown
5:50 AM 19.4 °F 6.0 °F 10.4 °F 68% 29.09 in 6.2 mi ENE 13.8 mph - N/A   Partly Cloudy
6:00 AM 20 °F - 15 °F 74% 29.09 in 31 mi North 13.8 mph - -  
6:50 AM 19.4 °F 6.6 °F 8.6 °F 63% 29.09 in 6.2 mi NE 12.7 mph - N/A   Clear
7:50 AM 19.4 °F 7.2 °F 12.2 °F 74% 29.12 in 6.2 mi ENE 11.5 mph - N/A   Clear
8:50 AM 19.4 °F 6.0 °F 10.4 °F 68% 29.12 in 6.2 mi NE 13.8 mph - N/A   Clear
9:00 AM 20 °F - 15 °F 72% 29.14 in 31 mi North 16.1 mph - -  
9:50 AM 19.4 °F 5.5 °F 10.4 °F 68% 29.12 in 6.2 mi NE 15.0 mph - N/A   Clear
10:50 AM 19.4 °F 7.2 °F 12.2 °F 74% 29.12 in 6.2 mi NE 11.5 mph - N/A   Partly Cloudy
11:50 AM 19.4 °F 6.6 °F 12.2 °F 74% 29.15 in 6.2 mi ENE 12.7 mph - N/A   Partly Cloudy
12:00 PM 21 °F - 16 °F 71% 29.16 in 31 mi North 11.5 mph - -  
1:50 PM 19.4 °F 9.5 °F 10.4 °F 68% 29.15 in 6.2 mi ENE 8.1 mph - N/A   Partly Cloudy
2:50 PM 19.4 °F 7.9 °F 12.2 °F 74% 29.15 in 6.2 mi NE 10.4 mph - N/A   Partly Cloudy
3:00 PM 20 °F - 14 °F 68% 29.16 in 31 mi North 13.8 mph - -  
3:50 PM 19.4 °F 8.6 °F 12.2 °F 74% 29.18 in 6.2 mi NE 9.2 mph - N/A   Scattered Clouds
4:50 PM 19.4 °F 8.6 °F 12.2 °F 74% 29.21 in 6.2 mi NE 9.2 mph - N/A   Scattered Clouds
5:50 PM 19.4 °F 8.6 °F 12.2 °F 74% 29.21 in 6.2 mi ENE 9.2 mph - N/A   Scattered Clouds
6:00 PM 21 °F - 17 °F 78% 29.21 in 31 mi North 12.7 mph - -   Scattered Clouds
6:50 PM 21.2 °F 11.7 °F 14.0 °F 74% 29.24 in 6.2 mi NE 8.1 mph - N/A   Scattered Clouds
7:50 PM 21.2 °F 10.1 °F 14.0 °F 74% 29.24 in 6.2 mi ENE 10.4 mph - N/A   Scattered Clouds
8:50 PM 21.2 °F 10.1 °F 15.8 °F 80% 29.24 in 6.2 mi NE 10.4 mph - N/A   Mostly Cloudy
9:20 PM 21.2 °F 10.9 °F 15.8 °F 80% 29.27 in 6.2 mi NE 9.2 mph - N/A   Mostly Cloudy
9:50 PM 23.0 °F 14.7 °F 15.8 °F 74% 29.27 in 6.2 mi ENE 6.9 mph - N/A   Overcast
10:20 PM 23.0 °F 14.7 °F 17.6 °F 80% 29.27 in 6.2 mi ENE 6.9 mph - N/A   Overcast
10:50 PM 23.0 °F 12.4 °F 17.6 °F 80% 29.27 in 6.2 mi ENE 10.4 mph - N/A   Overcast
11:20 PM 24.8 °F 16.9 °F 15.8 °F 69% 29.27 in 6.2 mi ENE 6.9 mph - N/A   Overcast
11:50 PM 23.0 °F 14.7 °F 15.8 °F 74% 29.27 in 6.2 mi ENE 6.9 mph - N/A   Overcast